Find Starlink 1281

NORAD ID: 45370 Int'l Des: 2020-019 Owner: SPXS Country: US Constellation: starlink operational
LEOCIRCULAR

現在のビュー

3D地球を読み込み中...

About Starlink 1281

Starlink 1281 (NORAD 45370) is a starlink constellation satellite (v1.0) launched Mar 18, 2020 by SPXS of US. It operates in LEO, CIRCULAR orbit with a mass of 260.00 kg.

Starlink 1281について

説明を読み込み中...

次回通過

Passes for default location (London). Set your location on the main map for personalized predictions.

高度履歴

Loading altitude history...

軌道要素

1 45370U 20019L 26168.86943233 .00035413 00000-0 10088-2 0 9997
2 45370 53.1568 58.5955 0004592 101.9554 258.1965 15.35779524345119
Epoch: Jun 17, 2026 • Age: 10 hours

現在のステータス

高度 478.5 km
速度 7.62 km/s
衛星直下点 -50.18°S, 76.7°W
打ち上げ日 Mar 18, 2020
運用期間 6.2 years
タイプ internet

技術仕様

分類 Payload
質量 260.00 kg
乾燥質量 248.00 kg
総質量 260.00 kg
長さ 0.20 m
直径 2.80 m
スパン 9.00 m
形状 Box + pan
製造者 SPXS
バスタイプ Starlink
フェーズステータス In Orbit
所有者/国 SPXS/US

Most Searched